CUB808 SKBO-SPZO

Flight info

Callsign CUB808
Flight time N/A
Altitude 38000
Route POVSO5U POVSO UL300 IQT UV9 FANES/N0472F370 UT335 ASBOB DCT DARKI
Aircraft IL62/H-SD/C

Departure

Time 2026-04-30 17:41
Airport El Dorado International Airport (SKBO)

Arrival

Time N/A
Airport Alejandro Velasco Astete International Airport (SPZO)
Time Latitude Longitude Altitude Speed Heading
2026-04-30 17:39 4.70989 -74.16840 8371 ft 0 kts 127°
2026-04-30 17:41 4.67859 -74.12679 8968 ft 197 kts 127°
2026-04-30 17:42 4.65517 -74.11521 9966 ft 204 kts 187°
2026-04-30 17:42 4.63207 -74.14850 11267 ft 217 kts 253°
2026-04-30 17:43 4.62985 -74.15681 11504 ft 220 kts 255°
2026-04-30 17:44 4.63944 -74.20150 12557 ft 251 kts 316°
2026-04-30 17:44 4.68977 -74.21129 14138 ft 263 kts 19°
2026-04-30 17:46 4.76696 -74.23522 16872 ft 284 kts 280°
2026-04-30 17:47 4.74342 -74.31060 18798 ft 305 kts 245°
2026-04-30 17:48 4.71047 -74.39375 20711 ft 343 kts 223°
2026-04-30 17:48 4.64449 -74.41999 22331 ft 357 kts 175°
2026-04-30 17:49 4.55990 -74.36954 24879 ft 373 kts 140°
2026-04-30 17:50 4.46545 -74.32447 27376 ft 386 kts 162°
2026-04-30 17:51 4.38651 -74.30423 29069 ft 394 kts 166°
2026-04-30 17:52 4.30585 -74.28615 30655 ft 398 kts 167°
2026-04-30 17:53 4.17026 -74.25518 32994 ft 401 kts 167°
2026-04-30 17:54 4.06126 -74.23001 34571 ft 403 kts 167°
2026-04-30 17:55 3.95203 -74.20496 35821 ft 405 kts 168°
2026-04-30 17:56 3.84063 -74.18888 36955 ft 405 kts 176°
2026-04-30 17:57 3.76625 -74.18007 37718 ft 404 kts 177°
2026-04-30 17:58 3.68192 -74.17006 38207 ft 413 kts 177°